Content
SEND FEEDBACK

Daily
Averages
Monthly
Summary
Canada

BIBLE HILL, NOVA SCOTIA


Home > North America > Canada > Nova Scotia
Elevation: 131 feet     Latitude: 45 22N     Longitude: 063 16W

WEATHER
 
SELECT A DAY
Number of Records: 96,943;   Date Range: 6/19/04 - 7/30/14
 
SHARE

PRINT THIS DATA

[ ← Previous Day ]
WEATHER ALMANAC - FEBRUARY 19, 2013
[ Next Day → ]
[ °C ]   °F
Weather ElementAverageHighLow
Temperature24.3 °F33.6 °F (4:00 pm)19.4 °F (7:00 am)
Dewpoint17.3 °F23.4 °F (6:00 pm)13 °F (8:00 am)
Humidity74.1 %94 % (10:00 pm)49 % (2:00 pm)
Barometer29.83 in30.03 in (7:00 pm)29.53 in (1:00 am)
Wind Speed9.2 mph13.8 mph (5:00 am)
Wind Gust23 mph (11:00 am)
Weather ElementAverage
Wind DirectionWSW (260.8 °)

Weather ElementTotal
Precipitation---
Heating Degree Days38.5 (Base 65)
Averaged from 24 records on February 19, 2013
WEATHER CONDITIONS BREAKOUT
WIND DIRECTION BREAKOUT
WEATHER BY HOUR - FEBRUARY 19, 2013
[ °C ]   °F
Local TimeTemperatureDewpointHumidityBarometerVisibilityWind DirectionWind SpeedGust SpeedPrecipitationEventsConditions
1:00 AM20.8 °F14.5 °F77 %29.53 inWest (270°)12.7 mph
2:00 AM20.0 °F14.0 °F70 %29.56 inWest (270°)11.5 mph
2:00 AM20.5 °F14.4 °F77 %29.56 inWest (270°)11.5 mph
3:00 AM20.3 °F14.4 °F78 %29.60 inWest (270°)11.5 mph
4:00 AM19.8 °F14.0 °F78 %29.63 inWest (270°)10.4 mph
5:00 AM20.3 °F13.3 °F74 %29.67 inWNW (290°)13.8 mph
6:00 AM19.6 °F13.8 °F78 %29.71 inWest (270°)10.4 mph
7:00 AM19.4 °F13.5 °F78 %29.75 inWest (280°)11.5 mph
8:00 AM20.0 °F13.0 °F66 %29.81 inWest (270°)8.1 mph
8:00 AM19.6 °F13.5 °F77 %29.81 inWest (270°)8.1 mph
9:00 AM21.9 °F14.5 °F73 %29.83 inWest (280°)9.2 mph
10:00 AM25.3 °F15.6 °F67 %29.84 inWNW (300°)10.4 mph
11:00 AM26.8 °F16.2 °F64 %29.86 inNW (310°)11.5 mph23.0 mph
12:00 PM28.0 °F17.1 °F63 %29.88 inNW (310°)13.8 mph20.7 mph
1:00 PM30.0 °F18.9 °F63 %29.89 inNW (320°)13.8 mph
2:00 PM32.0 °F20.0 °F49 %29.92 inNW (310°)10.4 mph
3:00 PM31.3 °F21.6 °F67 %29.94 inWNW (290°)10.4 mph
4:00 PM33.6 °F22.3 °F63 %29.95 inNW (320°)8.1 mph
5:00 PM32.9 °F23.0 °F67 %29.98 inWest (270°)6.9 mph
6:00 PM28.2 °F23.4 °F82 %30.01 inWNW (290°)4.6 mph
7:00 PM26.1 °F22.6 °F87 %30.03 inWSW (250°)4.6 mph
9:00 PM22.5 °F20.8 °F93 %30.03 inSW (230°)2.3 mph
10:00 PM21.9 °F20.5 °F94 %30.02 inNorth (10°)1.2 mph
11:00 PM22.1 °F20.7 °F94 %30.01 inNE (40°)3.5 mph
Hourly data recorded from CZDB, located miles away from Bible Hill, Nova Scotia







STORIES FROM OUR PARTNERS